Temperature
15 15 15 14 15 15 15 15 15 15 16 16 16 16 16 16 16 16 16 16 16 16 16 16 17 17 17 17 17 17 17 17 17 17 17 17 17 17 17 17 18 17 17
14 14 15 14 14 14 15 15 15 15 16 16 16 15 16 16 16 16 16 16 16 16 16 16 17 17 17 16 17 17 17 17 17 17 17 17 17 17 17 17 17 17 17
14 14 14 15 14 14 14 15 15 15 15 16 15 15 15 16 16 16 16 16 16 16 16 16 17 16 16 17 16 16 17 17 17 17 17 17 17 17 17 17 17 17 17
14 14 15 15 15 15 15 15 14 14 15 15 15 14 15 16 16 16 16 16 16 16 16 16 16 16 16 16 16 16 16 16 17 17 16 16 16 17 17 17 17 17 17
14 15 15 15 15 15 15 15 14 14 14 15 14 14 14 15 15 15 16 16 16 16 16 16 16 16 16 16 16 16 16 16 16 16 16 16 16 16 17 17 17 17 17
13 14 14 14 14 15 15 15 14 14 14 14 14 14 14 14 15 15 15 15 15 16 16 16 16 16 16 16 16 16 16 16 16 16 16 16 16 16 17 17 17 17 17
12 13 13 13 13 14 14 14 14 14 14 14 14 14 14 14 15 15 15 15 15 15 15 15 15 15 15 15 15 16 16 16 16 15 16 16 16 16 16 16 16 17 17
12 12 13 13 13 13 13 13 13 13 13 14 14 14 14 14 14 14 14 14 15 15 15 15 15 15 15 15 15 15 15 15 15 15 15 16 16 16 16 16 16 16 17
12 12 13 13 13 12 12 12 12 12 12 13 13 14 14 14 13 13 14 14 14 14 14 14 14 15 15 15 15 15 15 15 15 15 15 15 16 16 16 16 16 16 16
12 12 12 12 12 13 12 12 12 12 12 12 12 13 13 13 13 13 13 13 13 14 14 14 14 14 15 15 15 15 15 15 15 15 15 15 15 15 16 16 16 16 16
11 11 11 11 11 12 12 12 12 12 12 12 12 12 13 12 13 13 13 13 13 13 13 14 14 14 14 14 14 14 14 14 14 14 14 14 15 15 15 15 15 16 16
8 9 9 10 10 11 11 11 11 12 12 12 12 12 12 12 12 12 13 13 13 13 13 13 13 13 13 13 13 14 14 14 14 14 13 14 15 15 15 15 15 15 15
7 9 9 10 10 10 10 10 10 11 11 12 12 12 12 12 12 12 12 12 12 12 12 12 12 13 12 13 13 13 13 13 13 12 13 14 15 15 14 15 15 15 15
7 8 8 8 9 9 9 9 9 9 9 10 10 11 11 11 12 12 11 11 11 11 11 11 12 12 12 12 12 13 13 13 12 12 12 14 15 15 15 14 15 15 15
6 7 8 8 7 8 7 7 7 6 6 7 6 6 7 8 9 10 10 10 10 10 11 11 11 11 12 13 12 12 13 12 12 12 12 13 14 15 15 15 15 15 15
4 5 5 5 5 5 5 6 5 5 4 4 3 3 4 4 5 6 7 8 9 9 10 10 10 10 11 12 12 12 12 12 12 12 12 12 13 14 15 15 15 15 15
3 3 4 4 4 4 4 4 4 2 2 2 2 2 2 2 2 3 4 5 6 7 9 9 9 9 10 11 11 12 12 12 12 12 12 12 12 13 14 14 15 15 15
1 2 2 2 1 2 2 2 3 1 0 0 0 0 0 0 1 3 3 3 3 5 5 6 7 7 8 9 10 11 11 11 11 11 12 12 12 12 12 13 14 14 15
1 1 1 1 1 0 -0 0 -0 -0 -0 -1 -1 -1 -1 -1 -0 0 1 1 2 2 3 3 4 5 6 8 9 10 10 10 11 11 11 11 12 12 12 12 13 14 14
1 0 -0 0 -0 -1 -1 -1 -1 -2 -2 -2 -2 -3 -3 -3 -3 -2 -2 -1 -0 0 1 2 3 3 5 6 8 9 10 10 10 11 11 11 11 12 12 12 12 13 13
-1 -0 -0 -1 -1 -2 -2 -3 -3 -3 -3 -3 -4 -4 -4 -4 -4 -4 -3 -3 -2 -2 -1 -1 0 1 3 4 5 7 9 10 10 10 11 11 11 11 12 12 12 12 12
-2 -3 -3 -3 -3 -4 -4 -5 -4 -4 -4 -4 -5 -5 -5 -5 -5 -5 -5 -4 -4 -4 -3 -2 -2 -1 0 2 3 5 8 11 11 11 11 11 11 11 11 12 12 12 12
-4 -4 -4 -4 -5 -5 -6 -6 -6 -5 -5 -5 -6 -6 -6 -6 -6 -6 -5 -5 -5 -5 -5 -4 -4 -3 -2 -1 1 3 6 10 11 12 11 11 11 11 11 11 11 12 12
-5 -5 -5 -5 -6 -7 -7 -7 -7 -7 -7 -7 -7 -7 -7 -7 -6 -6 -6 -6 -6 -6 -5 -5 -4 -4 -3 -2 -1 1 3 5 6 9 11 10 10 11 11 11 11 11 12
-6 -6 -6 -6 -7 -7 -8 -8 -8 -8 -8 -7 -7 -8 -8 -7 -7 -6 -6 -6 -6 -6 -5 -5 -5 -4 -4 -3 -2 -1 1 3 5 6 8 10 10 10 10 11 11 11 13
-6 -7 -7 -8 -8 -8 -8 -9 -9 -9 -9 -8 -8 -8 -8 -8 -8 -7 -7 -7 -7 -6 -6 -6 -5 -5 -5 -4 -3 -2 -1 1 3 5 6 8 10 10 10 10 10 10 12
Wind_Speed
15 12 11 10 10 10 10 11 12 13 13 9 7 6 7 7 7 7 7 6 5 5 5 6 5 5 4 3 2 3 3 3 2 2 3 4 5 6 6 6 5 4 6
15 15 13 14 13 12 12 11 10 10 10 10 9 9 9 10 9 9 8 8 8 8 8 8 8 7 6 5 3 3 4 3 2 1 1 4 5 6 6 6 5 3 4
22 22 23 22 18 14 12 11 9 9 8 10 11 11 11 11 11 11 9 9 10 10 10 10 10 9 8 6 6 4 5 4 4 2 3 6 5 5 5 6 5 5 5
24 26 28 29 27 23 21 18 14 13 10 9 10 12 12 13 13 12 11 11 10 11 12 12 11 11 10 8 7 6 7 6 4 4 6 5 4 6 5 5 5 6 7
23 24 28 31 30 29 28 26 23 21 18 12 10 14 14 15 15 14 13 12 12 12 12 12 11 12 11 9 9 9 9 7 6 6 6 4 3 6 6 6 7 7 7
23 24 27 31 31 31 31 31 30 28 25 20 16 15 15 16 14 15 16 14 13 12 12 12 11 11 11 9 9 10 10 9 8 8 6 4 4 3 6 8 8 8 8
23 25 27 30 30 31 32 31 30 29 29 28 27 23 20 17 15 15 16 15 14 13 12 11 10 9 8 9 9 10 10 10 11 9 7 6 6 4 7 10 10 9 9
24 24 25 27 28 29 32 32 31 31 30 29 29 28 27 25 17 15 14 14 14 13 9 9 9 9 8 7 8 8 8 9 12 11 9 7 6 7 9 12 12 12 11
24 24 25 25 26 25 27 30 31 32 32 30 29 28 27 25 22 19 16 16 14 13 12 11 10 9 9 8 6 6 5 4 9 9 9 8 7 8 8 12 13 13 13
24 24 24 24 23 22 22 26 28 30 30 30 29 29 25 22 22 22 20 20 17 15 14 13 11 11 10 8 6 6 5 4 8 7 7 6 6 8 7 10 14 14 15
22 23 23 24 24 23 21 23 24 26 27 27 27 27 23 20 19 20 20 23 20 16 15 15 14 12 10 10 8 7 7 9 8 8 7 2 3 7 8 10 11 14 18
24 22 24 24 25 24 22 21 21 21 22 23 23 25 22 20 19 20 19 20 20 17 15 14 15 13 12 12 10 10 9 10 9 9 9 4 5 6 8 11 12 13 18
21 21 22 22 22 22 21 20 19 20 20 21 22 23 22 20 20 20 18 18 18 16 13 12 12 12 12 11 10 10 10 9 8 9 10 8 9 9 10 12 13 14 16
21 22 22 24 22 22 20 19 20 19 20 20 20 21 21 18 18 19 17 18 17 15 15 13 10 11 12 13 13 13 12 11 10 9 10 11 13 13 13 14 15 15 16
21 22 22 25 23 23 21 20 20 20 20 20 19 20 21 19 17 19 18 18 17 17 16 14 13 11 11 11 12 13 13 13 13 11 10 12 14 15 14 15 17 17 17
22 22 22 23 24 24 21 21 21 20 21 20 19 20 21 21 20 18 17 16 16 17 18 17 15 14 12 11 12 13 13 14 14 13 11 11 15 16 16 16 18 19 19
22 22 21 22 24 24 22 22 21 21 20 20 20 21 22 23 22 21 17 15 16 18 18 17 17 14 13 13 13 13 13 14 14 14 13 11 12 15 16 17 18 19 20
21 21 20 21 22 22 21 21 21 20 18 18 19 20 23 24 24 22 17 15 18 18 15 12 13 13 13 13 13 12 11 12 15 14 14 13 13 13 15 17 19 20 21
21 21 21 22 21 22 22 21 20 19 19 19 19 19 22 23 24 22 18 18 20 16 12 12 12 13 13 14 14 14 13 12 14 14 15 15 15 14 13 15 18 19 21
22 21 22 21 21 21 20 19 18 16 17 19 19 20 22 22 23 22 18 19 19 14 13 13 15 14 13 14 14 15 15 15 14 14 15 15 15 15 16 16 15 16 19
23 23 23 22 22 19 16 17 17 16 14 15 18 23 23 23 23 21 18 18 17 15 16 16 14 15 13 12 11 13 17 17 17 15 14 14 15 15 15 15 15 14 14
21 21 21 21 21 18 16 17 16 16 14 16 18 21 22 24 23 20 18 14 16 16 17 16 16 13 13 12 9 9 10 14 16 15 15 15 15 14 14 13 14 15 14
21 20 19 20 20 19 20 18 16 15 15 15 16 16 22 23 22 20 19 16 15 13 13 14 14 15 14 14 13 8 7 9 9 11 12 13 14 13 13 13 14 15 16
20 18 19 19 19 19 20 17 19 15 16 18 16 17 22 22 22 21 19 17 14 12 14 13 14 12 13 13 14 13 12 8 7 8 9 9 10 11 13 12 13 12 14
18 17 17 18 17 18 19 18 17 16 16 16 17 19 19 20 22 22 22 19 16 13 14 15 15 14 11 12 13 15 16 12 12 9 11 11 9 8 10 11 11 8 10
17 16 17 18 18 18 19 19 19 19 20 20 21 19 17 17 18 21 23 22 19 15 15 15 16 16 13 14 13 14 16 13 9 9 10 14 15 12 10 8 9 9 8
Wind_Direction
1 13 11 6 12 2 354 1 9 11 4 353 348 358 347 337 330 326 326 327 328 326 324 317 307 301 294 278 216 172 157 151 172 178 208 204 173 160 154 156 187 167 145
358 7 19 9 10 5 358 5 5 359 358 354 350 359 347 333 324 320 316 313 314 312 308 305 303 295 288 282 258 204 185 158 155 168 222 215 194 171 172 177 215 140 167
360 8 12 6 1 358 354 353 358 347 343 339 339 344 334 324 317 311 314 314 312 309 303 299 295 289 275 264 260 237 216 197 178 172 234 233 193 178 176 182 198 178 185
5 11 10 12 9 4 2 358 353 340 330 325 330 327 318 313 309 305 305 305 306 308 306 297 290 283 272 253 244 236 230 217 198 207 229 237 195 164 175 183 195 197 191
11 13 13 18 19 20 18 11 2 352 343 334 332 318 311 307 303 296 293 294 297 299 299 294 284 278 271 254 238 233 233 224 199 220 236 238 236 152 179 189 198 197 206
15 14 17 20 22 24 23 21 16 10 1 351 337 316 306 301 297 297 294 292 295 293 290 290 282 276 268 254 236 232 233 222 204 225 217 202 215 167 196 201 210 197 202
15 15 17 20 21 24 24 23 21 17 15 9 360 344 330 317 309 314 308 290 291 292 286 286 291 282 265 251 239 231 231 223 222 225 214 209 202 180 227 218 207 201 208
18 17 17 17 18 20 21 20 19 19 17 13 8 1 353 340 323 317 314 299 289 283 285 283 293 293 278 262 250 237 227 220 228 227 221 219 198 204 232 220 205 201 210
24 21 19 17 15 14 16 15 13 13 13 11 9 4 358 352 345 332 320 309 306 290 285 286 280 277 272 261 251 241 229 223 244 232 230 229 220 228 236 220 212 205 207
24 21 18 15 14 10 9 9 8 9 8 6 4 1 356 354 353 345 338 332 320 302 296 295 285 279 269 261 248 229 213 224 244 247 246 234 241 253 250 234 222 218 214
20 17 13 11 9 6 4 2 3 4 3 2 360 355 353 351 350 345 344 347 337 312 298 289 280 279 279 258 232 228 221 235 230 237 242 210 262 271 265 252 240 231 225
15 12 10 8 5 1 358 356 357 359 359 358 357 353 349 346 345 342 343 346 340 333 312 289 272 268 264 253 227 215 232 241 237 241 244 181 244 262 263 258 254 245 232
11 9 8 6 4 2 356 354 353 352 352 351 352 352 349 346 345 344 343 345 339 335 323 307 285 268 264 262 254 243 241 243 243 239 236 201 226 240 251 254 252 248 235
8 6 4 1 0 359 355 354 350 348 348 346 345 350 350 347 345 343 340 339 337 335 328 319 300 278 266 265 261 254 249 244 245 244 235 214 232 234 241 248 250 247 239
5 2 360 357 357 355 353 351 347 346 346 342 342 347 348 346 342 339 336 335 333 333 330 321 308 295 278 261 255 257 255 254 250 241 237 210 230 236 236 240 244 245 240
2 358 355 354 354 353 351 350 345 342 340 339 341 343 345 345 339 336 332 331 331 331 326 317 308 299 287 276 267 259 257 254 254 249 241 225 221 236 237 237 238 240 238
358 355 353 352 351 351 349 347 344 341 340 340 340 342 346 344 341 337 330 329 330 328 320 315 309 299 286 275 266 263 262 258 252 248 242 239 229 227 234 236 234 236 237
359 355 351 349 348 349 348 346 344 343 343 341 340 342 346 343 343 336 332 331 330 325 320 315 309 304 293 282 271 265 263 262 259 254 248 242 239 236 228 227 231 232 235
360 356 353 352 350 350 350 347 347 348 346 342 341 346 342 342 341 338 333 331 331 327 324 320 312 305 296 287 278 269 263 261 259 255 250 243 238 235 236 225 219 229 231
358 355 353 350 350 350 350 348 347 345 345 343 342 343 341 341 339 337 333 332 332 330 327 324 315 304 296 290 284 277 265 258 257 254 253 248 240 233 233 238 231 230 226
357 356 353 351 349 349 352 347 345 342 343 343 341 339 339 338 337 336 335 333 333 329 325 321 318 309 300 294 292 278 264 255 250 250 249 247 242 235 234 235 237 240 228
355 353 351 351 348 348 353 347 341 337 339 339 338 334 334 333 334 336 333 331 332 328 323 322 323 317 306 302 306 301 271 260 245 243 245 241 238 235 232 231 232 235 238
354 350 349 351 347 349 351 348 344 342 340 341 340 334 332 330 327 329 329 327 327 319 313 317 316 313 313 305 290 285 278 260 272 247 238 240 236 233 230 231 232 231 236
350 347 347 348 346 348 349 350 347 344 340 337 335 331 329 327 325 327 325 327 324 317 316 313 310 305 299 299 297 285 275 289 291 276 238 227 236 240 235 231 233 231 234
348 346 345 345 346 349 349 350 345 341 339 335 334 332 332 329 326 328 323 329 323 318 313 311 306 301 295 288 288 289 285 283 278 268 263 258 249 244 242 234 225 223 229
348 345 346 346 348 349 349 349 345 341 339 337 336 335 334 329 329 326 328 328 323 319 318 312 307 303 296 286 279 279 280 277 278 278 267 262 264 259 242 234 235 222 218
Height
1576 1574 1569 1566 1564 1562 1561 1560 1559 1557 1556 1555 1554 1552 1551 1550 1549 1549 1547 1546 1544 1544 1544 1544 1543 1542 1542 1542 1541 1541 1541 1541 1542 1542 1542 1542 1542 1541 1541 1541 1542 1544 1544
1581 1577 1572 1569 1566 1564 1562 1561 1559 1557 1556 1555 1554 1552 1551 1549 1548 1548 1547 1546 1544 1543 1542 1542 1541 1541 1541 1541 1541 1540 1540 1540 1541 1541 1541 1542 1542 1542 1542 1542 1543 1544 1543
1581 1577 1573 1570 1568 1566 1564 1562 1560 1558 1557 1555 1554 1552 1550 1549 1547 1546 1546 1545 1544 1542 1541 1540 1540 1539 1539 1539 1539 1539 1539 1539 1539 1540 1540 1541 1542 1541 1542 1542 1543 1543 1543
1579 1575 1572 1570 1568 1566 1565 1563 1561 1559 1557 1555 1553 1551 1549 1547 1545 1544 1544 1543 1542 1540 1539 1538 1537 1537 1536 1535 1536 1536 1537 1537 1537 1537 1538 1540 1541 1540 1540 1541 1541 1542 1542
1579 1576 1574 1571 1568 1565 1563 1561 1559 1557 1556 1554 1552 1549 1548 1546 1545 1544 1542 1541 1540 1539 1537 1537 1536 1535 1534 1533 1533 1534 1535 1535 1534 1536 1537 1538 1539 1539 1539 1540 1540 1541 1541
1580 1577 1575 1572 1569 1566 1564 1561 1558 1556 1553 1551 1550 1549 1548 1546 1544 1542 1541 1539 1538 1536 1535 1534 1534 1532 1532 1531 1531 1531 1532 1532 1532 1535 1535 1535 1536 1536 1537 1539 1540 1540 1540
1581 1578 1575 1572 1569 1567 1564 1562 1559 1556 1553 1550 1547 1546 1545 1544 1542 1540 1538 1537 1536 1534 1532 1531 1531 1530 1529 1529 1528 1529 1530 1530 1530 1533 1532 1533 1533 1535 1536 1537 1538 1538 1538
1583 1580 1577 1574 1571 1567 1564 1562 1559 1556 1553 1550 1548 1545 1543 1541 1540 1538 1536 1535 1533 1532 1530 1528 1528 1527 1527 1526 1526 1526 1527 1527 1528 1529 1529 1529 1531 1533 1533 1535 1535 1536 1537
1585 1581 1578 1575 1572 1569 1567 1564 1560 1556 1553 1550 1547 1544 1542 1540 1537 1535 1533 1532 1530 1528 1527 1526 1525 1525 1524 1524 1523 1523 1523 1524 1525 1526 1526 1526 1528 1530 1530 1532 1533 1534 1534
1586 1583 1580 1577 1574 1571 1568 1565 1561 1557 1554 1550 1546 1543 1540 1538 1535 1532 1530 1528 1526 1525 1524 1522 1521 1521 1521 1520 1520 1520 1520 1521 1522 1522 1522 1523 1524 1526 1527 1528 1529 1530 1533
1588 1585 1581 1578 1575 1571 1568 1564 1561 1557 1553 1550 1546 1543 1539 1536 1533 1530 1527 1525 1523 1521 1520 1519 1517 1518 1517 1516 1516 1516 1516 1517 1518 1519 1519 1518 1520 1521 1523 1524 1525 1527 1529
1589 1586 1582 1578 1574 1571 1568 1564 1560 1556 1553 1549 1545 1541 1538 1534 1531 1528 1524 1522 1520 1518 1516 1514 1514 1513 1513 1513 1513 1511 1512 1513 1514 1514 1515 1514 1516 1517 1518 1520 1521 1523 1525
1593 1588 1583 1579 1575 1571 1566 1562 1558 1554 1550 1547 1543 1539 1536 1532 1528 1524 1521 1518 1516 1514 1512 1511 1510 1509 1510 1510 1509 1509 1508 1508 1508 1508 1509 1509 1511 1512 1513 1515 1517 1518 1521
1593 1589 1584 1579 1575 1569 1565 1561 1556 1552 1547 1543 1539 1536 1532 1528 1524 1521 1518 1515 1512 1510 1509 1508 1506 1505 1504 1504 1504 1505 1504 1504 1503 1503 1503 1503 1505 1506 1508 1510 1512 1514 1516
1593 1588 1583 1579 1574 1569 1564 1559 1555 1550 1546 1541 1537 1533 1529 1524 1520 1517 1514 1510 1508 1505 1504 1502 1502 1502 1501 1500 1499 1499 1499 1499 1498 1498 1498 1497 1498 1500 1501 1503 1506 1509 1511
1592 1588 1582 1577 1572 1567 1562 1558 1554 1549 1544 1540 1536 1532 1528 1523 1518 1513 1509 1506 1503 1500 1498 1497 1496 1496 1495 1495 1494 1493 1493 1493 1493 1493 1493 1493 1493 1494 1495 1497 1499 1502 1505
1593 1588 1583 1577 1572 1566 1562 1556 1550 1545 1541 1538 1535 1531 1526 1521 1517 1511 1506 1502 1498 1495 1493 1492 1491 1490 1490 1489 1488 1486 1486 1487 1487 1487 1487 1487 1488 1488 1489 1490 1492 1495 1498
1593 1588 1584 1577 1571 1565 1559 1553 1547 1542 1538 1535 1532 1528 1522 1518 1513 1508 1504 1499 1495 1490 1488 1485 1485 1485 1484 1483 1482 1480 1479 1479 1480 1480 1481 1482 1483 1483 1483 1484 1486 1488 1491
1593 1587 1581 1575 1569 1561 1556 1550 1544 1540 1536 1532 1529 1524 1520 1515 1510 1506 1502 1497 1492 1488 1484 1481 1479 1478 1477 1476 1476 1475 1473 1472 1472 1473 1474 1475 1476 1476 1477 1479 1480 1482 1484
1593 1585 1579 1573 1566 1559 1552 1547 1542 1537 1532 1530 1527 1523 1518 1513 1508 1503 1499 1495 1490 1485 1481 1476 1473 1471 1471 1470 1469 1468 1467 1466 1465 1465 1466 1468 1469 1470 1471 1473 1474 1475 1477
1589 1582 1577 1570 1565 1559 1551 1545 1539 1533 1530 1527 1523 1519 1515 1510 1506 1501 1498 1493 1488 1483 1478 1474 1469 1466 1465 1465 1463 1459 1459 1458 1458 1458 1458 1460 1462 1463 1464 1466 1468 1470 1471
1590 1584 1577 1570 1565 1560 1552 1545 1540 1533 1528 1524 1520 1516 1512 1508 1504 1499 1493 1488 1483 1478 1474 1471 1468 1463 1461 1461 1460 1455 1452 1451 1450 1450 1451 1452 1453 1456 1457 1459 1461 1463 1465
1589 1584 1576 1568 1563 1558 1550 1543 1537 1532 1526 1521 1517 1513 1508 1504 1501 1497 1491 1486 1481 1476 1472 1468 1465 1461 1457 1455 1456 1455 1449 1444 1444 1444 1444 1445 1446 1448 1450 1452 1454 1456 1459
1587 1581 1574 1567 1561 1555 1548 1541 1535 1531 1525 1520 1516 1512 1507 1502 1497 1493 1490 1484 1478 1474 1470 1465 1460 1457 1454 1451 1450 1449 1448 1444 1443 1439 1438 1439 1440 1440 1442 1444 1447 1450 1452
1586 1580 1573 1566 1560 1553 1547 1540 1535 1530 1525 1519 1514 1509 1504 1499 1494 1489 1485 1481 1475 1470 1466 1462 1456 1453 1450 1447 1444 1443 1440 1438 1435 1436 1434 1435 1435 1436 1437 1438 1440 1441 1444
1585 1578 1571 1564 1557 1551 1545 1539 1533 1528 1523 1517 1511 1505 1500 1496 1491 1485 1481 1476 1470 1465 1461 1457 1452 1447 1444 1441 1438 1436 1435 1433 1430 1429 1428 1429 1431 1432 1433 1432 1434 1436 1437